Location: Brodeslavy
(49.9527°N, 13.5567°E)
Time: 05:16:30
(UTC+00:00)

Cosmos 1943 Rocket - Pass Details

Date: 17 June 2025
Orbit: 810 x 843 km, 71.0° (Epoch: 12 July)

Event Time Altitude Azimuth Distance (km) Brightness Sun altitude
Exits shadow 23:20:13 15° 138° (SE) 2,035 3.8 -16.6°
Maximum altitude 23:22:53 22° 101° (ESE) 1,720 3.7 -16.6°
Drops below altitude 10° 23:27:00 10° 53° (NE) 2,414 5.2 -16.5°
Sets 23:29:55 0° 39° (NE) 3,356 6.3 -16.5°
